KK5DC Weather Reports


time (UTC)temp
F
wind
direction
speed
knots
gust
knots
rain 1hr
in
rain 24hr
in
rain mn
in
humidity
%
barometer
mb
20260509224005 88 71 0.0 2.6 0.00 0.00 0.00 57 1008.5
20260509223511 87 159 0.9 2.6 0.00 0.00 0.00 60 1008.4
20260509223505 87 115 0.0 1.7 0.00 0.00 0.00 60 1009.1
20260509223024 87 265 0.9 2.6 0.00 0.00 0.00 60 1008.3
20260509223013 87 215 0.9 1.7 0.00 0.00 0.00 60 1009.1
20260509222509 87 224 0.0 1.7 0.00 0.00 0.00 60 1008.3
20260509222506 87 278 0.9 2.6 0.00 0.00 0.00 60 1009.1
20260509222005 87 80 0.0 5.2 0.00 0.00 0.00 62 1008.3
20260509221508 87 139 1.7 5.2 0.00 0.00 0.00 60 1008.9
20260509221002 87 28 0.0 1.7 0.00 0.00 0.00 62 1009.0
20260509220505 86 115 0.9 2.6 0.00 0.00 0.00 65 1008.3
20260509220017 86 83 0.9 2.6 0.00 0.00 0.00 64 1009.1
20260509220011 86 332 0.9 2.6 0.00 0.00 0.00 64 1008.5
20260509215507 85 324 0.9 2.6 0.00 0.00 0.00 66 1008.5
20260509215503 85 63 0.9 2.6 0.00 0.00 0.00 66 1009.2
20260509215006 85 260 0.0 3.5 0.00 0.00 0.00 68 1008.6
20260509215003 85 5 0.9 1.7 0.00 0.00 0.00 68 1009.2
20260509214515 84 238 1.7 3.5 0.00 0.00 0.00 71 1008.7
20260509214005 82 265 0.9 3.5 0.00 0.00 0.00 74 1008.7
20260509213509 80 266 0.9 2.6 0.00 0.00 0.00 79 1008.8
20260509213506 80 186 0.0 1.7 0.00 0.00 0.00 79 1009.5
20260509213010 78 275 0.0 1.7 0.00 0.00 0.00 80 1008.9
20260509213008 78 5 0.0 1.7 0.00 0.00 0.00 80 1009.5
20260509212509 78 275 0.0 1.7 0.00 0.00 0.00 78 1009.0
20260509212504 78 5 0.0 1.7 0.00 0.00 0.00 78 1009.7
20260509212011 79 5 0.0 1.7 0.00 0.00 0.00 78 1009.8
20260509211526 78 285 0.0 1.7 0.00 0.00 0.00 77 1009.1
20260509211507 78 352 0.0 1.7 0.00 0.00 0.00 77 1009.7
20260509211006 78 285 0.0 1.7 0.00 0.00 0.00 76 1009.3
20260509211004 78 23 0.0 2.6 0.00 0.00 0.00 76 1009.8
20260509210509 79 285 0.0 1.7 0.00 0.00 0.00 75 1009.4
20260509210503 79 146 0.0 2.6 0.00 0.00 0.00 75 1009.9
20260509210013 79 288 0.0 1.7 0.00 0.00 0.00 76 1009.3
20260509210011 79 13 0.0 1.7 0.00 0.00 0.00 76 1009.8
20260509205505 79 348 0.9 2.6 0.00 0.00 0.00 74 1009.2
20260509205007 80 28 0.0 7.8 0.00 0.00 0.00 74 1009.4
20260509205005 80 360 0.0 2.6 0.00 0.00 0.00 74 1009.9
20260509204517 81 254 1.7 7.8 0.00 0.00 0.00 72 1009.3
20260509204514 81 20 0.9 2.6 0.00 0.00 0.00 72 1009.9
20260509204006 83 282 0.9 5.2 0.00 0.00 0.00 74 1009.4
20260509204003 83 360 0.0 1.7 0.00 0.00 0.00 74 1010.0
20260509203506 83 294 0.0 1.7 0.00 0.00 0.00 73 1009.6
20260509203504 83 326 0.0 1.7 0.00 0.00 0.00 73 1010.1
20260509203021 83 291 0.0 1.7 0.00 0.00 0.00 73 1009.5
20260509203014 83 326 0.0 1.7 0.00 0.00 0.00 73 1010.1
20260509202506 83 291 0.0 1.7 0.00 0.00 0.00 73 1009.4
20260509202016 84 291 0.0 1.7 0.00 0.00 0.00 1009.7
20260509202006 84 53 0.0 1.7 0.00 0.00 0.00 1010.2
20260509201517 83 285 0.0 1.7 0.00 0.00 0.00 70 1009.7
20260509201515 83 53 0.0 1.7 0.00 0.00 0.00 70 1010.3
20260509201008 84 267 0.0 1.7 0.00 0.00 0.00 70 1009.9
20260509200512 84 267 0.0 2.6 0.00 0.00 0.00 67 1010.0
20260509200510 84 16 0.9 1.7 0.00 0.00 0.00 67 1010.6
20260509200018 85 265 0.9 3.5 0.00 0.00 0.00 66 1009.9
20260509200008 85 252 0.0 1.7 0.00 0.00 0.00 66 1010.6
20260509195513 85 266 1.7 3.5 0.00 0.00 0.00 64 1010.1
20260509195503 85 350 0.0 1.7 0.00 0.00 0.00 64 1010.7
20260509195004 86 263 0.0 4.3 0.00 0.00 0.00 62 1010.1
20260509195002 86 262 0.9 2.6 0.00 0.00 0.00 62 1010.7
20260509194519 88 278 0.9 5.2 0.00 0.00 0.00 62 1010.0
20260509194511 88 352 0.0 2.6 0.00 0.00 0.00 62 1010.6
20260509194007 89 244 1.7 5.2 0.00 0.00 0.00 62 1009.9
20260509194005 89 273 0.9 2.6 0.00 0.00 0.00 62 1010.5
20260509193509 88 55 0.9 2.6 0.00 0.00 0.00 58 1010.6
20260509193506 88 207 0.9 4.3 0.00 0.00 0.00 58 1010.0
20260509193024 87 229 0.9 2.6 0.00 0.00 0.00 62 1009.8
20260509193017 87 281 0.9 2.6 0.00 0.00 0.00 62 1010.5
20260509192505 87 190 0.9 4.3 0.00 0.00 0.00 64 1009.9
20260509192503 87 78 0.9 2.6 0.00 0.00 0.00 64 1010.5
20260509192008 87 208 1.7 6.1 0.00 0.00 0.00 64 1010.1
20260509191523 88 222 3.5 6.1 0.00 0.00 0.00 67 1010.0
20260509191517 88 272 0.9 4.3 0.00 0.00 0.00 67 1010.6
20260509191013 86 213 2.6 5.2 0.00 0.00 0.00 70 1010.0
20260509191006 86 230 0.9 2.6 0.00 0.00 0.00 70 1010.7
20260509190511 86 91 0.9 2.6 0.00 0.00 0.00 67 1010.9
20260509190507 86 10 0.9 3.5 0.00 0.00 0.00 67 1010.2
20260509190029 85 238 1.7 3.5 0.00 0.00 0.00 68 1010.3
20260509190019 85 53 0.9 2.6 0.00 0.00 0.00 68 1011.0
20260509185509 85 273 0.0 3.5 0.00 0.00 0.00 67 1010.4
20260509185505 85 24 0.9 2.6 0.00 0.00 0.00 67 1011.1
20260509185004 84 267 0.9 3.5 0.00 0.00 0.00 70 1010.6
20260509184541 85 255 0.9 6.1 0.00 0.00 0.00 67 1010.8
20260509184521 85 46 0.0 2.6 0.00 0.00 0.00 67 1011.4
20260509184006 86 199 0.9 2.6 0.00 0.00 0.00 68 1011.5
20260509183507 84 250 0.9 2.6 0.00 0.00 0.00 70 1010.9
20260509183504 84 15 0.0 1.7 0.00 0.00 0.00 70 1011.5
20260509183028 84 333 0.0 1.7 0.00 0.00 0.00 73 1011.6
20260509183021 84 246 0.9 1.7 0.00 0.00 0.00 73 1011.0
20260509182507 83 298 0.0 2.6 0.00 0.00 0.00 72 1011.1
20260509182008 84 281 0.0 2.6 0.00 0.00 0.00 72 1011.1
20260509181517 85 292 1.7 4.3 0.00 0.00 0.00 68 1011.2
20260509181007 86 190 2.6 4.3 0.00 0.00 0.00 67 1011.2
20260509180514 86 230 2.6 3.5 0.00 0.00 0.00 69 1011.3
20260509180507 86 200 0.9 2.6 0.00 0.00 0.00 69 1011.8
20260509180016 84 348 0.9 2.6 0.00 0.00 0.00 73 1011.8
20260509180008 84 156 1.7 4.3 0.00 0.00 0.00 73 1011.3
20260509175512 83 214 1.7 3.5 0.00 0.00 0.00 71 1011.9
20260509175503 83 234 1.7 4.3 0.00 0.00 0.00 71 1011.4
20260509175007 84 204 1.7 3.5 0.00 0.00 0.00 72 1011.9
20260509175003 84 209 2.6 4.3 0.00 0.00 0.00 72 1011.5
20260509174511 82 232 1.7 5.2 0.00 0.00 0.00 75 1011.5
20260509174509 82 217 0.9 3.5 0.00 0.00 0.00 75 1012.0
20260509174003 84 275 2.6 5.2 0.00 0.00 0.00 71 1011.6
20260509173511 86 223 0.9 2.6 0.00 0.00 0.00 72 1012.1
20260509173502 86 155 0.9 4.3 0.00 0.00 0.00 72 1011.7
20260509173021 84 195 0.0 1.7 0.00 0.00 0.00 74 1012.2
20260509173008 84 248 1.7 4.3 0.00 0.00 0.00 74 1011.6
20260509172510 84 271 1.7 3.5 0.00 0.00 0.00 80 1011.8
20260509172504 84 294 0.9 1.7 0.00 0.00 0.00 80 1012.3
20260509172007 81 234 0.0 1.7 0.00 0.00 0.00 79 1012.3
20260509172004 81 202 0.0 4.3 0.00 0.00 0.00 79 1011.8
20260509171524 81 265 0.0 1.7 0.00 0.00 0.00 77 1012.2
20260509171506 81 215 2.6 4.3 0.00 0.00 0.00 77 1011.8
20260509171008 82 223 0.9 1.7 0.00 0.00 0.00 75 1012.2
20260509171002 82 190 0.9 4.3 0.00 0.00 0.00 75 1011.7
20260509170507 81 189 1.7 6.1 0.00 0.00 0.00 76 1011.7
20260509170504 81 158 0.0 2.6 0.00 0.00 0.00 76 1012.1
20260509170018 81 269 0.9 2.6 0.00 0.00 0.00 76 1012.2
20260509170004 81 229 1.7 6.1 0.00 0.00 0.00 76 1011.8
20260509165507 82 227 1.7 3.5 0.00 0.00 0.00 75 1012.1
20260509165502 82 211 2.6 5.2 0.00 0.00 0.00 75 1011.6
20260509165006 83 207 0.0 3.5 0.00 0.00 0.00 75 1012.1
20260509165003 83 213 0.9 7.0 0.00 0.00 0.00 75 1011.6
20260509164518 83 216 0.9 3.5 0.00 0.00 0.00 76 1012.1
20260509164509 83 210 4.3 7.0 0.00 0.00 0.00 76 1011.6
20260509164009 82 204 0.9 4.3 0.00 0.00 0.00 75 1012.1
20260509164006 82 180 1.7 8.7 0.00 0.00 0.00 75 1011.5
20260509163504 82 265 4.3 9.6 0.00 0.00 0.00 78 1011.6
20260509163023 83 235 5.2 10.4 0.00 0.00 0.00 77 1011.5
20260509163019 83 231 0.9 5.2 0.00 0.00 0.00 77 1012.0
20260509162507 83 165 1.7 5.2 0.00 0.00 0.00 78 1011.8
20260509162505 83 186 6.1 13.0 0.00 0.00 0.00 78 1011.3
20260509162006 83 178 0.9 5.2 0.00 0.00 0.00 79 1011.8
20260509162003 83 182 7.8 13.0 0.00 0.00 0.00 79 1011.3
20260509161518 82 227 1.7 5.2 0.00 0.00 0.00 79 1011.8
20260509161512 82 201 5.2 10.4 0.00 0.00 0.00 79 1011.3
20260509161012 82 165 1.7 5.2 0.00 0.00 0.00 77 1011.8
20260509161010 82 215 7.0 11.3 0.00 0.00 0.00 77 1011.2
20260509160508 82 224 1.7 4.3 0.00 0.00 0.00 80 1011.8
20260509160503 82 197 7.0 11.3 0.00 0.00 0.00 80 1011.2
20260509160022 81 152 0.9 5.2 0.00 0.00 0.00 79 1011.9
20260509160005 81 181 5.2 9.6 0.00 0.00 0.00 79 1011.2
20260509155506 81 230 1.7 5.2 0.00 0.00 0.00 79 1012.1
20260509155502 81 187 7.0 8.7 0.00 0.00 0.00 79 1011.4
20260509155009 81 213 1.7 5.2 0.00 0.00 0.00 81 1012.1
20260509155004 81 207 6.1 9.6 0.00 0.00 0.00 81 1011.4
20260509154529 81 221 0.9 5.2 0.00 0.00 0.00 80 1012.0
20260509154513 81 186 6.1 9.6 0.00 0.00 0.00 80 1011.3
20260509154006 81 213 3.5 5.2 0.00 0.00 0.00 80 1012.1
20260509154003 81 208 6.1 9.6 0.00 0.00 0.00 80 1011.4
20260509153507 81 193 0.9 5.2 0.00 0.00 0.00 81 1012.0
20260509153504 81 167 4.3 9.6 0.00 0.00 0.00 81 1011.3
20260509153025 81 279 2.6 6.1 0.00 0.00 0.00 82 1011.9
20260509153003 81 206 7.0 9.6 0.00 0.00 0.00 82 1011.3
20260509152507 80 169 0.9 6.1 0.00 0.00 0.00 85 1012.0
20260509152504 80 202 4.3 8.7 0.00 0.00 0.00 85 1011.3
20260509152007 79 181 6.1 8.7 0.00 0.00 0.00 83 1011.4
20260509151518 79 170 5.2 10.4 0.00 0.00 0.00 84 1011.3
20260509151516 79 154 0.9 4.3 0.00 0.00 0.00 84 1012.0
20260509151006 78 219 1.7 4.3 0.00 0.00 0.00 85 1011.8
20260509151003 78 181 5.2 10.4 0.00 0.00 0.00 85 1011.1
20260509150507 78 163 5.2 7.8 0.00 0.00 0.00 87 1011.0
20260509150020 76 215 0.0 1.7 0.00 0.00 0.00 91 1011.9
20260509150016 76 165 2.6 6.1 0.00 0.00 0.00 91 1011.1
20260509145509 75 233 0.9 3.5 0.00 0.00 0.00 89 1012.1
20260509145503 75 163 1.7 8.7 0.00 0.00 0.00 89 1011.2
20260509145009 76 146 0.9 4.3 0.00 0.00 0.00 89 1012.1
20260509145003 76 176 3.5 8.7 0.00 0.00 0.00 89 1011.2
20260509144519 76 270 0.9 4.3 0.00 0.00 0.00 89 1012.0
20260509144509 76 195 4.3 10.4 0.00 0.00 0.00 89 1011.2
20260509144007 75 156 0.9 1.7 0.00 0.00 0.00 90 1011.9
20260509144004 75 174 3.5 10.4 0.00 0.00 0.00 90 1011.1
20260509143510 75 220 0.9 2.6 0.00 0.00 0.00 92 1011.7
20260509143504 75 228 2.6 7.0 0.00 0.00 0.00 92 1010.8
20260509143016 75 159 0.9 2.6 0.00 0.00 0.00 91 1011.5
20260509143012 75 146 2.6 6.1 0.00 0.00 0.00 91 1010.7
20260509142507 75 144 0.9 3.5 0.00 0.00 0.00 92 1011.5
20260509142505 75 169 2.6 7.0 0.00 0.00 0.00 92 1010.7
20260509142009 75 227 0.9 3.5 0.00 0.00 0.00 93 1011.5
20260509141528 74 161 1.7 6.1 0.00 0.00 0.00 95 1010.8
20260509141523 74 200 0.9 3.5 0.00 0.00 0.00 95 1011.6
20260509141007 73 167 0.0 1.7 0.00 0.00 0.00 94 1011.7
20260509141004 73 165 2.6 6.1 0.00 0.00 0.00 94 1010.9
20260509140507 73 190 2.6 5.2 0.00 0.00 0.00 94 1011.0
20260509140020 73 165 0.0 1.7 0.00 0.00 0.00 94 1011.9
20260509140007 73 185 1.7 3.5 0.00 0.00 0.00 94 1011.2
20260509135507 73 182 0.0 1.7 0.00 0.00 0.00 94 1011.9
20260509135011 73 140 0.9 1.7 0.00 0.00 0.00 94 1012.0
20260509135005 73 155 0.9 2.6 0.00 0.00 0.00 94 1011.4
20260509134521 73 180 0.9 3.5 0.00 0.00 0.00 94 1012.0
20260509134518 73 154 0.9 2.6 0.00 0.00 0.00 94 1011.4
20260509134006 73 148 0.0 1.7 0.00 0.00 0.00 94 1011.5
20260509133509 73 93 0.0 1.7 0.00 0.00 0.00 94 1012.2
20260509133503 73 158 0.0 1.7 0.00 0.00 0.00 94 1011.5
20260509133022 73 165 0.0 1.7 0.00 0.00 0.00 94 1012.2
20260509133008 73 158 0.0 1.7 0.00 0.00 0.00 94 1011.6
20260509132508 73 165 0.0 1.7 0.00 0.00 0.00 94 1012.1
20260509132505 73 158 0.0 1.7 0.00 0.00 0.00 94 1011.5
20260509132008 73 165 0.0 1.7 0.00 0.00 0.00 94 1012.0
20260509131519 73 211 0.0 1.7 0.00 0.00 0.00 94 1012.0
20260509131511 73 158 0.0 1.7 0.00 0.00 0.00 94 1011.3
20260509131009 73 84 0.0 1.7 0.00 0.00 0.00 94 1011.9
20260509131003 73 158 0.0 1.7 0.00 0.00 0.00 94 1011.2
20260509130503 73 158 0.9 1.7 0.00 0.00 0.00 95 1010.9
20260509130024 73 158 0.0 1.7 0.00 0.00 0.00 95 1010.8
20260509130019 73 156 0.0 1.7 0.00 0.00 0.00 95 1011.6
20260509125510 73 158 0.0 1.7 0.00 0.00 0.00 95 1010.8
20260509125006 73 133 0.0 1.7 0.00 0.00 0.00 95 1011.7
20260509125004 73 187 0.9 1.7 0.00 0.00 0.00 95 1010.9
20260509124517 72 157 0.9 1.7 0.00 0.00 0.00 95 1011.0
20260509124512 72 98 0.0 1.7 0.00 0.00 0.00 95 1011.7
20260509124008 72 327 0.0 1.7 0.00 0.00 0.00 95 1010.9
20260509123510 72 98 0.0 1.7 0.00 0.00 0.00 95 1011.7
20260509123508 72 320 0.0 1.7 0.00 0.00 0.00 95 1010.9
20260509123014 72 320 0.0 1.7 0.00 0.00 0.00 95 1011.1
20260509123011 72 19 0.0 1.7 0.00 0.00 0.00 95 1011.8
20260509122504 72 320 0.0 1.7 0.00 0.00 0.00 95 1011.1
20260509122007 72 360 0.0 1.7 0.00 0.00 0.00 94 1011.6
20260509122003 72 320 0.0 1.7 0.00 0.00 0.00 94 1010.9
20260509121508 72 5 0.0 2.6 0.00 0.00 0.00 95 1011.4
20260509121005 72 320 0.0 2.6 0.00 0.00 0.00 94 1010.6
20260509120506 72 9 0.0 2.6 0.00 0.00 0.00 94 1011.4
20260509120504 72 320 0.0 1.7 0.00 0.00 0.00 94 1010.7
20260509120022 72 319 0.9 1.7 0.00 0.00 0.00 94 1010.9
20260509120016 72 16 0.0 1.7 0.00 0.00 0.00 94 1011.6
20260509115505 72 336 0.0 1.7 0.00 0.00 0.00 94 1011.6
20260509115503 72 333 0.9 3.5 0.00 0.00 0.00 94 1010.9
20260509115009 72 24 0.0 3.5 0.00 0.00 0.00 94 1011.6
20260509115007 72 330 0.0 3.5 0.00 0.00 0.00 94 1010.9
20260509114540 72 9 0.9 3.5 0.00 0.00 0.00 94 1011.8
20260509114523 72 328 0.9 2.6 0.00 0.00 0.00 94 1011.0
20260509114004 72 324 0.9 1.7 0.00 0.00 0.00 94 1011.3
20260509113505 72 360 0.0 1.7 0.00 0.00 0.00 94 1011.9
20260509113024 72 352 0.0 0.0 0.00 0.00 0.00 94 1011.9
20260509112507 72 265 0.0 1.7 0.00 0.00 0.00 94 1011.2
20260509112016 72 352 0.0 0.0 0.00 0.00 0.00 94 1012.0
20260509112008 72 265 0.0 1.7 0.00 0.00 0.00 94 1011.3
20260509111520 72 352 0.0 0.9 0.00 0.00 0.00 94 1012.0
20260509111512 72 265 0.0 1.7 0.00 0.00 0.00 94 1011.3
20260509111005 72 352 0.0 1.7 0.00 0.00 0.00 94 1012.3
20260509111003 72 265 0.0 1.7 0.00 0.00 0.00 94 1011.6
20260509110506 72 352 0.0 1.7 0.00 0.00 0.00 94 1012.3
20260509110014 72 302 0.0 1.7 0.00 0.00 0.00 94 1012.3
20260509110012 72 265 0.0 1.7 0.00 0.00 0.00 94 1011.6
20260509105510 72 302 0.0 1.7 0.00 0.00 0.00 94 1011.8
20260509105504 72 306 0.0 1.7 0.00 0.00 0.00 94 1012.5
20260509105008 72 62 0.0 1.7 0.00 0.00 0.00 94 1012.4
20260509105004 72 307 0.9 1.7 0.00 0.00 0.00 94 1011.8
20260509104522 72 62 0.0 0.0 0.00 0.00 0.00 94 1012.2
20260509104510 72 308 0.9 1.7 0.00 0.00 0.00 94 1011.5
20260509104009 72 323 0.0 1.7 0.00 0.00 0.00 94 1011.6
20260509104006 72 62 0.0 1.7 0.00 0.00 0.00 94 1012.3
20260509103509 72 323 0.0 1.7 0.00 0.00 0.00 94 1011.8
20260509103507 72 62 0.0 1.7 0.00 0.00 0.00 94 1012.5
20260509103011 72 62 0.0 1.7 0.00 0.00 0.00 94 1012.7
20260509102505 72 323 0.0 1.7 0.00 0.00 0.00 94 1012.0
20260509102011 72 323 0.0 1.7 0.00 0.00 0.00 94 1012.0
20260509101530 72 323 0.0 1.7 0.00 0.00 0.00 94 1011.8
20260509101526 72 360 0.0 1.7 0.00 0.00 0.00 94 1012.4
20260509101005 72 311 0.9 1.7 0.00 0.00 0.00 94 1011.6
20260509101003 72 350 0.0 1.7 0.00 0.00 0.00 94 1012.3
20260509100507 71 346 0.0 1.7 0.00 0.00 0.00 94 1012.0
20260509100012 71 163 0.0 0.9 0.00 0.00 0.00 94 1011.0
20260509095509 71 163 0.0 1.7 0.00 0.00 0.00 94 1010.8
20260509095507 71 229 0.0 1.7 0.00 0.00 0.00 94 1011.5
20260509095006 71 163 0.0 1.7 0.00 0.00 0.00 94 1010.7
20260509094523 71 229 0.0 1.7 0.00 0.00 0.00 94 1011.1
20260509094521 71 163 0.0 1.7 0.00 0.00 0.00 94 1010.5
20260509094007 71 143 0.9 0.9 0.00 0.00 0.00 94 1010.5
20260509093505 71 132 0.9 1.7 0.00 0.00 0.00 94 1010.4
20260509093023 72 229 0.0 0.0 0.00 0.00 0.00 94 1011.0
20260509093020 72 132 0.0 1.7 0.00 0.00 0.00 94 1010.4
20260509092512 72 229 0.0 1.7 0.00 0.00 0.00 94 1011.1
20260509092506 72 132 0.0 1.7 0.00 0.00 0.00 94 1010.3
20260509092012 72 132 0.0 1.7 0.00 0.00 0.00 94 1010.3
20260509092007 72 229 0.0 1.7 0.00 0.00 0.00 94 1011.1
20260509091518 72 132 0.0 1.7 0.00 0.00 0.00 94 1010.2
20260509091006 72 132 0.0 1.7 0.00 0.00 0.00 94 1010.1
20260509090511 72 175 0.0 0.9 0.00 0.00 0.00 94 1011.0
20260509090041 72 190 0.0 0.0 0.00 0.00 0.00 94 1010.9
20260509090010 72 147 0.0 0.9 0.00 0.00 0.00 94 1010.2
20260509085506 72 190 0.0 0.0 0.00 0.00 0.00 94 1011.0
20260509085003 72 190 0.0 0.9 0.00 0.00 0.00 94 1011.2
20260509084521 72 190 0.0 0.9 0.00 0.00 0.00 94 1011.3
20260509084512 72 147 0.0 1.7 0.00 0.00 0.00 94 1010.7
20260509084010 72 190 0.0 1.7 0.00 0.00 0.00 94 1011.4
20260509084007 72 147 0.0 1.7 0.00 0.00 0.00 94 1010.8
20260509083508 72 190 0.0 1.7 0.00 0.00 0.00 94 1011.5
20260509083040 72 190 0.0 0.0 0.00 0.00 0.00 94 1011.5
20260509083006 72 147 0.0 1.7 0.00 0.00 0.00 94 1010.9
20260509082506 72 190 0.0 0.0 0.00 0.00 0.00 93 1011.7
20260509082503 72 147 0.0 1.7 0.00 0.00 0.00 93 1011.1
20260509082016 72 190 0.0 1.7 0.00 0.00 0.00 93 1011.8
20260509082007 72 147 0.0 1.7 0.00 0.00 0.00 93 1011.2
20260509081533 72 147 0.0 1.7 0.00 0.00 0.00 93 1011.2
20260509081528 72 190 0.0 1.7 0.00 0.00 0.00 93 1011.9
20260509081014 72 190 0.0 1.7 0.00 0.00 0.00 93 1011.7
20260509081005 72 147 0.0 1.7 0.00 0.00 0.00 93 1011.1
20260509080506 72 190 0.0 0.0 0.00 0.00 0.00 93 1011.8
20260509080501 72 147 0.0 0.0 0.00 0.00 0.00 93 1011.2
20260509080024 72 190 0.0 0.9 0.00 0.00 0.00 93 1011.9
20260509080006 72 147 0.0 1.7 0.00 0.00 0.00 93 1011.2
20260509075509 72 190 0.0 1.7 0.00 0.00 0.00 93 1012.0
20260509075502 72 147 0.0 1.7 0.00 0.00 0.00 93 1011.4
20260509075003 72 190 0.0 1.7 0.00 0.00 0.00 93 1011.9
20260509074531 72 190 0.0 1.7 0.00 0.00 0.00 93 1011.9
20260509074512 72 147 0.0 1.7 0.00 0.00 0.00 93 1011.3
20260509074008 72 147 0.0 0.9 0.00 0.00 0.00 93 1011.3
20260509074003 72 190 0.0 0.9 0.00 0.00 0.00 93 1011.9
20260509073509 72 190 0.0 0.9 0.00 0.00 0.00 93 1011.7
20260509073505 72 147 0.0 1.7 0.00 0.00 0.00 93 1011.2
20260509073034 72 147 0.0 1.7 0.00 0.00 0.00 93 1011.2
20260509073020 72 200 0.0 0.0 0.00 0.00 0.00 93 1011.8
20260509072514 72 200 0.0 1.7 0.00 0.00 0.00 93 1011.8
20260509072507 72 147 0.0 3.5 0.00 0.00 0.00 93 1011.2
20260509072009 73 200 0.0 1.7 0.00 0.00 0.00 93 1011.7
20260509072002 73 147 0.0 3.5 0.00 0.00 0.00 93 1011.1
20260509071528 73 115 0.0 2.6 0.00 0.00 0.00 92 1011.0
20260509071520 73 180 0.0 1.7 0.00 0.00 0.00 92 1011.6
20260509071007 73 171 0.0 1.7 0.00 0.00 0.00 92 1011.7
20260509070513 73 160 1.7 4.3 0.00 0.00 0.00 92 1010.8
20260509070507 73 193 0.0 1.7 0.00 0.00 0.00 92 1011.4
20260509070032 73 117 0.0 1.7 0.00 0.00 0.00 92 1011.4
20260509070017 73 163 0.9 3.5 0.00 0.00 0.00 92 1010.8
20260509065513 73 76 0.0 2.6 0.00 0.00 0.00 92 1011.3
20260509065504 73 160 0.9 5.2 0.00 0.00 0.00 92 1010.8
20260509065010 73 131 0.0 2.6 0.00 0.00 0.00 92 1011.5
20260509065002 73 168 1.7 5.2 0.00 0.00 0.00 92 1010.9
20260509064527 73 137 0.0 1.7 0.00 0.00 0.00 92 1011.6
20260509064506 73 147 0.9 4.3 0.00 0.00 0.00 92 1011.0
20260509064008 73 164 1.7 4.3 0.00 0.00 0.00 92 1010.9
20260509063506 73 178 0.0 1.7 0.00 0.00 0.00 91 1011.5
20260509063018 73 169 0.9 5.2 0.00 0.00 0.00 91 1010.9
20260509062510 73 144 0.0 3.5 0.00 0.00 0.00 91 1011.4
20260509062503 73 207 0.9 7.8 0.00 0.00 0.00 91 1010.8
20260509062007 73 163 0.9 7.8 0.00 0.00 0.00 91 1010.6
20260509062004 73 180 0.9 3.5 0.00 0.00 0.00 91 1011.2
20260509061523 73 155 0.0 3.5 0.00 0.00 0.00 91 1010.5
20260509061521 73 207 0.0 1.7 0.00 0.00 0.00 91 1011.2
20260509061008 73 262 0.0 1.7 0.00 0.00 0.00 91 1011.2
20260509060506 73 149 0.0 7.0 0.00 0.00 0.00 91 1010.9
20260509060022 73 171 0.9 2.6 0.00 0.00 0.00 91 1011.5
20260509060004 73 186 1.7 9.6 0.00 0.00 0.00 91 1010.8
20260509055508 73 173 0.0 2.6 0.00 0.00 0.00 91 1011.4
20260509055504 73 162 3.5 9.6 0.00 0.00 0.00 91 1010.8
20260509055010 73 146 0.0 2.6 0.00 0.00 0.00 91 1011.4
20260509055004 73 150 2.6 7.0 0.00 0.00 0.00 91 1010.7
20260509054520 73 174 0.9 3.5 0.00 0.00 0.00 91 1011.4
20260509054511 73 161 0.9 7.8 0.00 0.00 0.00 91 1010.8
20260509054012 73 119 0.9 3.5 0.00 0.00 0.00 91 1011.3
20260509054003 73 148 2.6 7.8 0.00 0.00 0.00 91 1010.8
20260509053509 73 192 0.0 2.6 0.00 0.00 0.00 91 1011.2
20260509053503 73 167 1.7 5.2 0.00 0.00 0.00 91 1010.5
20260509053024 73 181 0.0 2.6 0.00 0.00 0.00 91 1011.1
20260509053013 73 148 1.7 5.2 0.00 0.00 0.00 91 1010.4
20260509052513 73 147 0.9 3.5 0.00 0.00 0.00 90 1011.2
20260509052506 73 82 1.7 5.2 0.00 0.00 0.00 90 1010.5
20260509052007 73 208 0.9 3.5 0.00 0.00 0.00 90 1011.2
20260509052002 73 154 2.6 7.8 0.00 0.00 0.00 90 1010.4
20260509051519 73 217 0.0 2.6 0.00 0.00 0.00 90 1011.0
20260509051510 73 141 1.7 7.8 0.00 0.00 0.00 90 1010.2
20260509051007 73 126 2.6 7.0 0.00 0.00 0.00 90 1010.2
20260509050511 73 195 0.9 3.5 0.00 0.00 0.00 90 1011.0
20260509050502 73 145 2.6 6.1 0.00 0.00 0.00 90 1010.3
20260509050041 73 193 0.9 1.7 0.00 0.00 0.00 90 1011.1
20260509050007 73 138 1.7 7.0 0.00 0.00 0.00 90 1010.4
20260509045507 73 186 0.9 1.7 0.00 0.00 0.00 90 1011.2
20260509045504 73 172 2.6 7.0 0.00 0.00 0.00 90 1010.5
20260509045009 73 205 0.0 1.7 0.00 0.00 0.00 90 1011.2
20260509045002 73 144 2.6 7.0 0.00 0.00 0.00 90 1010.4
20260509044529 72 174 0.0 1.7 0.00 0.00 0.00 90 1011.2
20260509044509 72 146 1.7 4.3 0.00 0.00 0.00 90 1010.5
20260509044015 72 132 0.0 1.7 0.00 0.00 0.00 90 1011.2
20260509044003 72 86 0.9 4.3 0.00 0.00 0.00 90 1010.5
20260509043507 72 81 0.0 1.7 0.00 0.00 0.00 91 1011.1
20260509043503 72 153 0.9 4.3 0.00 0.00 0.00 91 1010.5
20260509043035 72 171 0.0 1.7 0.00 0.00 0.00 91 1011.1
20260509043002 72 171 0.9 3.5 0.00 0.00 0.00 91 1010.4
20260509042511 72 142 0.0 1.7 0.00 0.00 0.00 90 1011.1
20260509042503 72 148 0.0 2.6 0.00 0.00 0.00 90 1010.4
20260509042014 72 165 0.0 1.7 0.00 0.00 0.00 90 1011.2
20260509042007 72 148 0.9 1.7 0.00 0.00 0.00 90 1010.5
20260509041524 72 165 0.0 1.7 0.00 0.00 0.00 90 1011.2
20260509041515 72 148 0.9 2.6 0.00 0.00 0.00 90 1010.5
20260509041009 72 183 0.0 1.7 0.00 0.00 0.00 90 1011.3
20260509041003 72 136 0.9 2.6 0.00 0.00 0.00 90 1010.6
20260509040507 72 152 0.9 2.6 0.00 0.00 0.00 89 1010.6
20260509040022 72 148 0.9 2.6 0.00 0.00 0.00 89 1010.5
20260509035508 72 188 0.0 1.7 0.00 0.00 0.00 89 1011.1
20260509035504 72 221 0.9 2.6 0.00 0.00 0.00 89 1010.4
20260509035010 72 148 0.0 1.7 0.00 0.00 0.00 89 1011.0
20260509035003 72 153 0.9 3.5 0.00 0.00 0.00 89 1010.3
20260509034523 72 149 0.0 0.9 0.00 0.00 0.00 89 1011.0
20260509034504 72 150 0.9 3.5 0.00 0.00 0.00 89 1010.3
20260509034008 72 149 0.0 1.7 0.00 0.00 0.00 89 1010.9
20260509034003 72 133 0.0 1.7 0.00 0.00 0.00 89 1010.2
20260509033512 72 134 0.0 1.7 0.00 0.00 0.00 89 1011.0
20260509033502 72 126 0.0 1.7 0.00 0.00 0.00 89 1010.2
20260509033036 72 130 0.0 1.7 0.00 0.00 0.00 89 1011.0
20260509033008 72 126 0.0 1.7 0.00 0.00 0.00 89 1010.2
20260509032516 72 130 0.0 1.7 0.00 0.00 0.00 88 1011.0
20260509032504 72 96 0.0 1.7 0.00 0.00 0.00 88 1010.2
20260509032013 72 101 0.0 1.7 0.00 0.00 0.00 88 1010.9
20260509032006 72 96 0.0 1.7 0.00 0.00 0.00 88 1010.2
20260509031532 73 142 0.0 1.7 0.00 0.00 0.00 88 1010.8
20260509031511 73 146 0.0 1.7 0.00 0.00 0.00 88 1010.1
20260509031012 73 142 0.0 1.7 0.00 0.00 0.00 88 1010.8
20260509031006 73 146 0.0 1.7 0.00 0.00 0.00 88 1010.0
20260509030510 73 165 0.0 1.7 0.00 0.00 0.00 87 1010.7
20260509030506 73 103 0.0 1.7 0.00 0.00 0.00 87 1010.0
20260509030020 73 107 0.0 1.7 0.00 0.00 0.00 87 1010.7
20260509030007 73 103 0.0 1.7 0.00 0.00 0.00 87 1009.9
20260509025507 73 133 0.0 1.7 0.00 0.00 0.00 87 1010.7
20260509025504 73 113 0.0 1.7 0.00 0.00 0.00 87 1009.9
20260509025009 74 117 0.0 1.7 0.00 0.00 0.00 86 1010.6
20260509025006 74 113 0.0 1.7 0.00 0.00 0.00 86 1009.8
20260509024527 74 232 0.0 1.7 0.00 0.00 0.00 86 1010.5
20260509024014 74 202 0.0 1.7 0.00 0.00 0.00 86 1010.4
20260509024004 74 67 0.9 2.6 0.00 0.00 0.00 86 1009.7
20260509023509 74 140 0.0 1.7 0.00 0.00 0.00 85 1010.4
20260509023502 74 95 0.0 1.7 0.00 0.00 0.00 85 1009.8
20260509023008 74 95 0.0 1.7 0.00 0.00 0.00 85 1009.7
20260509023006 74 112 0.0 1.7 0.00 0.00 0.00 85 1010.4
20260509022504 74 90 0.9 1.7 0.00 0.00 0.00 85 1009.7
20260509022502 74 78 0.0 1.7 0.00 0.00 0.00 85 1010.3
20260509022005 74 180 0.0 2.6 0.00 0.00 0.00 85 1010.3
20260509021512 74 96 0.0 1.7 0.00 0.00 0.00 85 1009.6
20260509021004 74 111 0.0 1.7 0.00 0.00 0.00 84 1010.2
20260509020504 74 100 0.0 1.7 0.00 0.00 0.00 84 1009.4
20260509020032 74 116 0.0 1.7 0.00 0.00 0.00 84 1009.3
20260509020017 74 115 0.0 1.7 0.00 0.00 0.00 84 1010.1
20260509015508 74 116 0.0 1.7 0.00 0.00 0.00 84 1009.4
20260509015005 74 116 0.0 1.7 0.00 0.00 0.00 84 1009.4
20260509015001 74 94 0.0 1.7 0.00 0.00 0.00 84 1010.0
20260509014532 75 116 0.9 1.7 0.00 0.00 0.00 83 1009.4
20260509014516 75 149 0.0 1.7 0.00 0.00 0.00 83 1010.1
20260509014007 75 229 0.0 1.7 0.00 0.00 0.00 83 1010.1
20260509013507 75 94 0.0 1.7 0.00 0.00 0.00 83 1009.4
20260509013503 75 265 0.0 2.6 0.00 0.00 0.00 83 1010.1
20260509013012 75 80 0.9 1.7 0.00 0.00 0.00 83 1009.3
20260509013004 75 130 0.0 2.6 0.00 0.00 0.00 83 1010.1
20260509012506 75 80 0.0 1.7 0.00 0.00 0.00 83 1009.3
20260509012503 75 132 0.0 1.7 0.00 0.00 0.00 83 1010.1
20260509012003 75 78 0.0 1.7 0.00 0.00 0.00 83 1009.4
20260509011508 75 92 0.0 0.9 0.00 0.00 0.00 83 1010.0
20260509011003 75 87 0.9 1.7 0.00 0.00 0.00 83 1009.3
20260509010506 75 94 0.0 1.7 0.00 0.00 0.00 82 1010.0
20260509010502 75 87 0.0 1.7 0.00 0.00 0.00 82 1009.3
20260509010016 75 87 0.0 1.7 0.00 0.00 0.00 82 1009.3
20260509010012 75 103 0.0 0.9 0.00 0.00 0.00 82 1010.1
20260509005505 76 105 0.0 1.7 0.00 0.00 0.00 81 1010.1
20260509005503 76 89 0.0 1.7 0.00 0.00 0.00 81 1009.3
20260509005009 76 105 0.0 1.7 0.00 0.00 0.00 81 1010.0
20260509005006 76 89 0.0 1.7 0.00 0.00 0.00 81 1009.3
20260509004522 76 89 0.0 1.7 0.00 0.00 0.00 81 1009.3
20260509004006 76 89 0.0 1.7 0.00 0.00 0.00 80 1009.3
20260509004003 76 82 0.0 1.7 0.00 0.00 0.00 80 1010.0
20260509003509 76 82 0.9 1.7 0.00 0.00 0.00 80 1009.2
20260509003505 76 159 0.0 1.7 0.00 0.00 0.00 80 1010.0
20260509003030 76 70 0.0 1.7 0.00 0.00 0.00 79 1009.2
20260509003021 76 156 0.0 1.7 0.00 0.00 0.00 79 1009.9
20260509002513 77 178 0.0 1.7 0.00 0.00 0.00 80 1009.2
20260509002503 77 189 0.0 1.7 0.00 0.00 0.00 80 1009.9
20260509002005 77 111 0.0 1.7 0.00 0.00 0.00 80 1010.0
20260509001519 77 107 0.0 2.6 0.00 0.00 0.00 80 1009.3
20260509001508 77 148 0.0 1.7 0.00 0.00 0.00 80 1010.1
20260509001003 77 150 0.9 2.6 0.00 0.00 0.00 78 1009.3
20260509000503 77 120 0.0 1.7 0.00 0.00 0.00 78 1010.1
20260509000028 77 135 0.0 2.6 0.00 0.00 0.00 78 1010.0
20260509000012 77 113 0.0 2.6 0.00 0.00 0.00 78 1009.2
20260508235506 77 87 0.9 2.6 0.00 0.00 0.00 79 1010.0
20260508235504 77 98 0.9 1.7 0.00 0.00 0.00 79 1009.2
20260508235007 77 129 0.0 1.7 0.00 0.00 0.00 79 1009.2
20260508235004 77 121 0.0 1.7 0.00 0.00 0.00 79 1009.9
20260508234513 77 117 0.0 1.7 0.00 0.00 0.00 78 1010.1
20260508234008 77 112 0.9 2.6 0.00 0.00 0.00 78 1009.4
20260508233507 77 147 0.0 2.6 0.00 0.00 0.00 78 1010.1
20260508233025 78 98 0.9 3.5 0.00 0.00 0.00 77 1009.3
20260508233008 78 131 0.0 2.6 0.00 0.00 0.00 77 1010.1
20260508232507 78 17 0.0 2.6 0.00 0.00 0.00 77 1010.0
20260508232504 78 69 0.9 3.5 0.00 0.00 0.00 77 1009.2
20260508232010 78 96 0.9 3.5 0.00 0.00 0.00 77 1009.3
20260508232007 78 159 0.0 2.6 0.00 0.00 0.00 77 1010.0
20260508231529 78 76 0.9 3.5 0.00 0.00 0.00 76 1009.3
20260508231508 78 171 0.9 3.5 0.00 0.00 0.00 76 1010.1
20260508231007 78 109 0.9 5.2 0.00 0.00 0.00 77 1010.0
20260508231003 78 97 0.9 4.3 0.00 0.00 0.00 77 1009.3
20260508230507 79 61 1.7 4.3 0.00 0.00 0.00 75 1009.2
20260508230505 79 126 1.7 5.2 0.00 0.00 0.00 75 1010.0
20260508230018 80 158 1.7 6.1 0.00 0.00 0.00 75 1009.2
20260508230008 80 189 0.9 2.6 0.00 0.00 0.00 75 1009.9
20260508225503 80 134 0.9 6.1 0.00 0.00 0.00 74 1009.2
20260508225007 79 117 0.9 3.5 0.00 0.00 0.00 75 1009.9
20260508224537 79 186 0.9 3.5 0.00 0.00 0.00 75 1009.9
20260508224516 79 148 0.9 6.1 0.00 0.00 0.00 75 1009.2